Regional Weather Roundup
Issued by NWS

Home | Current Version | Previous Version | Graphics & Text | Print | Product List | Glossary On
Versions: 1 2 3 4 5 6 7 8 9 10 11 12 13 14 15 16 17 18 19 20 21 22 23 24 25 26 27 28 29 30 31 32 33 34 35 36 37 38 39 40 41 42 43 44 45 46 47 48 49 50
000
ASUS43 KMPX 301501
RWRMN
WEATHER ROUNDUP FOR MINNESOTA
NATIONAL WEATHER SERVICE TWIN CITIES/CHANHASSEN MN
1000 AM CDT MON MAR 30 2015


NOTE: "FAIR" INDICATES FEW OR NO CLOUDS BELOW 12,000 FEET WITH NO
SIGNIFICANT WEATHER AND/OR OBSTRUCTIONS TO VISIBILITY. N/A MEANS
CURRENT SKY AND/OR WEATHER CONDITIONS ARE NOT AVAILABLE.

MNZ060>063-068>070-301600-
   Twin Cities Metro

CITY           SKY/WX    TMP DP  RH WIND       PRES   REMARKS
TWIN CITIES    CLOUDY    41  28  60 CALM      29.94F
ST PAUL        CLOUDY    42  29  59 CALM      29.96F
CRYSTAL        CLOUDY    43  28  55 CALM      29.94F
BLAINE         CLOUDY    43  30  61 CALM      29.94F
LAKEVILLE      CLOUDY    41  28  60 SW3       29.95S
EDEN PRAIRIE   CLOUDY    40  28  62 S8        29.94F
SOUTH ST PAUL  CLOUDY    43  28  56 CALM      29.95F
LAKE ELMO      PTSUNNY   41  32  70 CALM      29.96F
$$
MNZ001>005-007-008-013>017-022>024-027-028-301600-
   Northwest Minnesota

CITY           SKY/WX    TMP DP  RH WIND       PRES   REMARKS
BEMIDJI        CLOUDY    36  31  82 CALM      29.90S
HALLOCK        CLOUDY    39  36  87 E6        29.85F
ROSEAU         CLOUDY    37  30  75 CALM      29.86S
WARROAD        CLOUDY    37  32  81 CALM      29.86F
THIEF RVR FALL CLOUDY    39  30  70 E6        29.87F
CROOKSTON      CLOUDY    37  32  81 SE5       29.88S
FOSSTON        CLOUDY    36  36 100 CALM      29.88F
DETROIT LAKES  CLOUDY    39  32  75 E6        29.87F
MOORHEAD       CLOUDY    43  37  81 SE3       29.86S
PARK RAPIDS    CLOUDY    38  30  73 E3        29.90S
MAHNOMEN       CLOUDY    37  32  81 NE7       29.87F
$$
MNZ006-009>011-018-025>026-301600-
   North Central Minnesota

CITY           SKY/WX    TMP DP  RH WIND       PRES   REMARKS
BAUDETTE       PTSUNNY   39  30  70 S6        29.86S
FLAG ISLAND    CLOUDY    30  28  93 SE5       29.85S WCI  25
INTL FALLS     MOSUNNY   41  27  57 VRB3      29.88S
WASKISH        CLOUDY    37  32  81 CALM      29.89S
BIG FORK       PTSUNNY   39  30  70 CALM      29.90R
LONGVILLE      CLOUDY    36  30  80 W3        29.92R
GRAND RAPIDS   PTSUNNY   39  28  65 N3        29.91R
ORR            MOSUNNY   41  25  52 CALM      29.86S
COOK           MOSUNNY   39  28  65 W3        29.89S
WALKER         CLOUDY    35  30  80 CALM      29.91R
$$
MNZ012-019>021-037-301600-
   Northeast Minnesota

CITY           SKY/WX    TMP DP  RH WIND       PRES   REMARKS
DULUTH         MOSUNNY   45  25  45 NW6       29.91R
ELY            SUNNY     41  23  48 NW8       29.87S
HIBBING        MOSUNNY   44  24  45 NW5       29.90R
EVELETH        SUNNY     43  28  56 W3        29.90R
DULUTH HARBOR  MOSUNNY   43  30  61 CALM      29.94R
TWO HARBORS    SUNNY     48  28  46 NW6       29.89R
SILVER BAY     SUNNY     46  25  42 W5        29.88R
GRAND MARAIS     N/A     38  27  64 SW6       29.90R
G MARAIS ARPRT SUNNY     36  19  51 NW8G16    29.85S
$$
MNZ029>031-032-039>041-046>048-054>057-064-301600-
   West Central Minnesota

CITY           SKY/WX    TMP DP  RH WIND       PRES   REMARKS
FERGUS FALLS   CLOUDY    41  28  60 E7        29.87S
WHEATON        CLOUDY    46  32  57 S6        29.87F
MORRIS         CLOUDY    39  32  75 SE8       29.86F
ALEXANDRIA     CLOUDY    40  30  67 E7        29.89S
ELBOW LAKE     CLOUDY    38  31  74 SE8       29.86S
WADENA         CLOUDY    39  30  70 E5        29.87F
GLENWOOD       CLOUDY    39  34  81 SE5       29.89F
APPLETON         N/A     45  30  57 SE3       29.87F
BENSON         CLOUDY    39  30  70 S6        29.88F
ORTONVILLE     CLOUDY    46  30  53 SE3       29.86F
MADISON        CLOUDY    54  27  35 W9        29.87F
WILLMAR        FAIR      39  30  70 E6        29.92F
$$
MNZ033>034-036-042>043-049>051-058-059-301600-
   Central Minnesota

CITY           SKY/WX    TMP DP  RH WIND       PRES   REMARKS
ST CLOUD       CLOUDY    39  30  70 CALM      29.92F
SAUK CENTRE    PTSUNNY   37  32  79 SE5       29.90F
PAYNESVILLE    CLOUDY    37  29  71 E3        29.92S
AITKIN         CLOUDY    41  30  65 W3        29.92R
PINE RIVER     CLOUDY    37  30  75 N3        29.96R
BRAINERD       CLOUDY    37  30  75 CALM      29.93R
STAPLES        CLOUDY    37  30  75 E6        29.90F
LONG PRAIRIE   CLOUDY    37  32  81 CALM      29.90S
LITTLE FALLS   CLOUDY    37  30  75 CALM      29.92F
LITCHFIELD     CLOUDY    43  28  56 CALM      29.93S
MAPLE LAKE     CLOUDY    41  32  70 SE3       29.94R
$$
MNZ037-044-045-052-053-301600-
   East Central Minnesota

CITY           SKY/WX    TMP DP  RH WIND       PRES   REMARKS
PRINCETON      CLOUDY    39  30  70 CALM      29.95R
MORA           DRIZZLE   36  30  80 CALM      29.97R
CAMBRIDGE      CLOUDY    41  28  60 CALM      29.94R
RUSH CITY      CLOUDY    39  30  69 CALM      29.96R
MOOSE LAKE     CLOUDY    41  30  65 CALM      29.91S
HINCKLEY       CLOUDY    39  32  75 CALM      29.94R
CLOQUET        MOSUNNY   45  27  49 CALM      29.91S
MCGREGOR       CLOUDY    39  32  75 CALM      29.92S
$$
MNZ071>073-080-081-089-090-097-098-301600-
   Southwest Minnesota

CITY           SKY/WX    TMP DP  RH WIND       PRES   REMARKS
MONTEVIDEO     CLOUDY    45  30  57 SW5       29.89F
GRANITE FALLS  CLOUDY    47  31  53 S6        29.91F
CANBY          CLOUDY    54  25  32 SW18G25   29.89F
MARSHALL       CLOUDY    54  25  32 SW20      29.90F
REDWOOD FALLS  CLOUDY    47  30  51 S5        29.91F
OLIVIA         CLOUDY    37  30  75 S3        29.90F
PIPESTONE      SUNNY     52  21  30 SW14      29.91F
WINDOM         PTSUNNY   54  25  32 SW12      29.94F
WORTHINGTON    MOSUNNY   50  25  37 SW13      29.96F
JACKSON        PTSUNNY   52  23  32 SW15      29.96F
TRACY          PTSUNNY   54  25  33 SW15      29.91F
SLAYTON        MOSUNNY   51  18  26 SW15      29.93F
$$
MNZ065>067-074>077-082>085-091>093-301600-
   South Central Minnesota

CITY           SKY/WX    TMP DP  RH WIND       PRES   REMARKS
MANKATO        CLOUDY    45  27  49 S8        29.94F
NEW ULM        CLOUDY    48  27  43 SW6       29.92F
ST JAMES       CLOUDY    52  27  37 S7        29.95F
FAIRMONT       CLOUDY    50  27  40 SW10      29.95F
GLENCOE        CLOUDY    40  33  76 CALM      29.94S
FARIBAULT      PTSUNNY   43  28  56 S3        29.96F
OWATONNA       PTSUNNY   43  30  61 SW5       29.96F
WASECA         CLOUDY    39  30  70 S6        29.97F
ALBERT LEA     PTSUNNY   50  27  40 SW7       29.97F
$$
MNZ078>079-086>088-094>096-301600-
   Southeast Minnesota

CITY           SKY/WX    TMP DP  RH WIND       PRES   REMARKS
ROCHESTER      PTSUNNY   44  31  60 W9        29.98F
RED WING       CLOUDY    43  28  56 CALM      29.97R
STANTON        CLOUDY    43  31  62 S3        29.95S
DODGE CENTER   PTSUNNY   45  34  65 SW7       29.96F
WINONA         PTSUNNY   46  30  53 W5        29.98F
AUSTIN         PTSUNNY   46  30  53 SW8       29.97F
PRESTON        PTSUNNY   45  29  54 W12       29.99S
$$
ABBREVIATIONS USED IN REMARKS
   TC - TEMPERATURES IN CELSIUS
  WCI - WIND CHILL INDEX
   HX - HEAT INDEX
  VSB - VISIBILITY
$$



USA.gov is the U.S. government's official web portal to all federal, state and local government web resources and services.